Time,TemperatureF,DewpointF,PressureIn,WindDirection,WindDirectionDegrees,WindSpeedMPH,WindSpeedGustMPH,Humidity,HourlyPrecipIn,Conditions,Clouds,dailyrainin,SolarRadiationWatts/m^2,SoftwareType,DateUTC
2013-02-17 00:00:00,11.6,7.4,29.94,NNW,331,0.0,0.0,83,0.00,,,0.00,0.00,VWS V14.01,2013-02-17 05:00:00,
2013-02-17 00:05:00,11.6,7.4,29.93,NNW,331,0.0,0.0,83,0.00,,,0.00,0.00,VWS V14.01,2013-02-17 05:05:00,
2013-02-17 00:10:00,11.6,7.4,29.93,NNW,331,0.0,0.0,83,0.00,,,0.00,0.00,VWS V14.01,2013-02-17 05:10:00,
2013-02-17 00:15:00,11.6,7.4,29.93,NNW,331,0.0,0.0,83,0.00,,,0.00,0.00,VWS V14.01,2013-02-17 05:15:00,
2013-02-17 00:20:00,11.6,7.7,29.93,NNW,331,0.0,0.0,84,0.00,,,0.00,0.00,VWS V14.01,2013-02-17 05:20:00,
2013-02-17 00:25:00,11.6,7.7,29.93,NNW,331,0.0,0.0,84,0.00,,,0.00,0.00,VWS V14.01,2013-02-17 05:25:00,
2013-02-17 00:30:00,11.7,7.8,29.93,NNW,331,0.0,0.0,84,0.00,,,0.00,0.00,VWS V14.01,2013-02-17 05:30:00,
2013-02-17 00:35:00,11.9,8.0,29.93,NNW,331,0.0,0.0,84,0.00,,,0.00,0.00,VWS V14.01,2013-02-17 05:35:00,
2013-02-17 00:40:00,11.9,8.0,29.93,NNW,331,0.0,0.0,84,0.00,,,0.00,0.00,VWS V14.01,2013-02-17 05:40:00,
2013-02-17 00:45:00,12.1,8.5,29.93,NNW,331,0.0,0.0,85,0.00,,,0.00,0.00,VWS V14.01,2013-02-17 05:45:00,
2013-02-17 00:50:00,12.3,8.7,29.93,NNW,331,0.0,0.0,85,0.00,,,0.00,0.00,VWS V14.01,2013-02-17 05:50:00,
2013-02-17 00:55:00,12.6,9.0,29.93,NNW,331,0.0,0.0,85,0.00,,,0.00,0.00,VWS V14.01,2013-02-17 05:55:00,
2013-02-17 01:00:00,12.8,9.1,29.93,NNW,331,0.0,0.0,85,0.00,,,0.00,0.00,VWS V14.01,2013-02-17 06:00:00,
2013-02-17 01:05:00,12.9,9.2,29.94,NNW,331,0.0,0.0,85,0.00,,,0.00,0.00,VWS V14.01,2013-02-17 06:05:00,
2013-02-17 01:10:00,13.1,9.4,29.94,NNW,331,0.0,0.0,85,0.00,,,0.00,0.00,VWS V14.01,2013-02-17 06:10:00,
2013-02-17 01:15:00,13.3,9.6,29.94,NNW,331,0.0,0.0,85,0.00,,,0.00,0.00,VWS V14.01,2013-02-17 06:15:00,
2013-02-17 01:20:00,13.5,9.8,29.94,NNW,331,0.0,0.0,85,0.00,,,0.00,0.00,VWS V14.01,2013-02-17 06:20:00,
2013-02-17 01:25:00,13.6,10.2,29.94,NNW,331,0.0,0.0,86,0.00,,,0.00,0.00,VWS V14.01,2013-02-17 06:25:00,
2013-02-17 01:30:00,13.6,10.2,29.94,NNW,331,0.0,0.0,86,0.00,,,0.00,0.00,VWS V14.01,2013-02-17 06:30:00,
2013-02-17 01:35:00,13.8,10.4,29.94,NNW,331,0.0,0.0,86,0.00,,,0.00,0.00,VWS V14.01,2013-02-17 06:35:00,
2013-02-17 01:40:00,14.0,10.6,29.94,NNW,331,0.0,0.0,86,0.00,,,0.00,0.00,VWS V14.01,2013-02-17 06:40:00,
2013-02-17 01:45:00,14.0,10.6,29.94,NNW,331,0.0,0.0,86,0.00,,,0.00,0.00,VWS V14.01,2013-02-17 06:45:00,
2013-02-17 01:50:00,14.0,10.6,29.94,NNW,331,0.0,0.0,86,0.00,,,0.00,0.00,VWS V14.01,2013-02-17 06:50:00,
2013-02-17 01:55:00,14.0,10.6,29.94,NNW,331,0.0,0.0,86,0.00,,,0.00,0.00,VWS V14.01,2013-02-17 06:55:00,
2013-02-17 02:00:00,14.1,10.7,29.94,NNW,331,0.0,0.0,86,0.00,,,0.00,0.00,VWS V14.01,2013-02-17 07:00:00,
2013-02-17 02:05:00,14.1,10.7,29.94,NNW,331,0.0,0.0,86,0.00,,,0.00,0.00,VWS V14.01,2013-02-17 07:05:00,
2013-02-17 02:10:00,14.1,10.7,29.94,NNW,331,0.0,0.0,86,0.00,,,0.00,0.00,VWS V14.01,2013-02-17 07:10:00,
2013-02-17 02:15:00,14.1,10.7,29.94,NNW,331,0.0,0.0,86,0.00,,,0.00,0.00,VWS V14.01,2013-02-17 07:15:00,
2013-02-17 02:20:00,14.1,10.7,29.94,NNW,331,0.0,0.0,86,0.00,,,0.00,0.00,VWS V14.01,2013-02-17 07:20:00,
2013-02-17 02:25:00,14.1,10.7,29.94,NNW,331,0.0,0.0,86,0.00,,,0.00,0.00,VWS V14.01,2013-02-17 07:25:00,
2013-02-17 02:30:00,14.1,10.7,29.94,NNW,331,0.0,0.0,86,0.00,,,0.00,0.00,VWS V14.01,2013-02-17 07:30:00,
2013-02-17 02:35:00,14.0,10.6,29.94,NNW,331,0.0,0.0,86,0.00,,,0.00,0.00,VWS V14.01,2013-02-17 07:35:00,
2013-02-17 02:40:00,14.0,10.6,29.94,NNW,331,0.0,0.0,86,0.00,,,0.00,0.00,VWS V14.01,2013-02-17 07:40:00,
2013-02-17 02:45:00,14.0,10.6,29.94,NNW,331,0.0,0.0,86,0.00,,,0.00,0.00,VWS V14.01,2013-02-17 07:45:00,
2013-02-17 02:50:00,14.0,10.6,29.95,NNW,331,0.0,0.0,86,0.00,,,0.00,0.00,VWS V14.01,2013-02-17 07:50:00,
2013-02-17 02:55:00,14.0,10.6,29.95,NNW,331,0.0,0.0,86,0.00,,,0.00,0.00,VWS V14.01,2013-02-17 07:55:00,
2013-02-17 03:00:00,13.8,10.4,29.95,NNW,331,0.0,0.0,86,0.00,,,0.00,0.00,VWS V14.01,2013-02-17 08:00:00,
2013-02-17 03:05:00,13.8,10.4,29.95,NNW,331,0.0,0.0,86,0.00,,,0.00,0.00,VWS V14.01,2013-02-17 08:05:00,
2013-02-17 03:10:00,13.8,10.4,29.95,NNW,331,0.0,0.0,86,0.00,,,0.00,0.00,VWS V14.01,2013-02-17 08:10:00,
2013-02-17 03:15:00,13.8,10.1,29.95,NNW,331,0.0,0.0,85,0.00,,,0.00,0.00,VWS V14.01,2013-02-17 08:15:00,
2013-02-17 03:20:00,13.8,10.1,29.95,NNW,331,0.0,0.0,85,0.00,,,0.00,0.00,VWS V14.01,2013-02-17 08:20:00,
2013-02-17 03:25:00,13.6,9.9,29.95,NNW,331,0.0,0.0,85,0.00,,,0.00,0.00,VWS V14.01,2013-02-17 08:25:00,
2013-02-17 03:30:00,13.6,9.9,29.95,NNW,331,0.0,0.0,85,0.00,,,0.00,0.00,VWS V14.01,2013-02-17 08:30:00,
2013-02-17 03:35:00,13.5,9.8,29.95,NNW,331,0.0,0.0,85,0.00,,,0.00,0.00,VWS V14.01,2013-02-17 08:35:00,
2013-02-17 03:40:00,13.5,9.8,29.95,NNW,331,0.0,0.0,85,0.00,,,0.00,0.00,VWS V14.01,2013-02-17 08:40:00,
2013-02-17 03:45:00,13.5,9.8,29.95,NNW,331,0.0,0.0,85,0.00,,,0.00,0.00,VWS V14.01,2013-02-17 08:45:00,
2013-02-17 03:50:00,13.3,9.6,29.94,NNW,331,0.0,0.0,85,0.00,,,0.00,0.00,VWS V14.01,2013-02-17 08:50:00,
2013-02-17 03:55:00,13.3,9.6,29.94,NNW,331,0.0,0.0,85,0.00,,,0.00,0.00,VWS V14.01,2013-02-17 08:55:00,
2013-02-17 04:00:00,13.3,9.6,29.94,NNW,331,0.0,0.0,85,0.00,,,0.00,0.00,VWS V14.01,2013-02-17 09:00:00,
2013-02-17 04:05:00,13.1,9.4,29.95,NNW,331,0.0,0.0,85,0.00,,,0.00,0.00,VWS V14.01,2013-02-17 09:05:00,
2013-02-17 04:10:00,13.1,9.4,29.95,NNW,331,0.0,0.0,85,0.00,,,0.00,0.00,VWS V14.01,2013-02-17 09:10:00,
2013-02-17 04:15:00,12.9,9.2,29.95,NNW,331,0.0,0.0,85,0.00,,,0.00,0.00,VWS V14.01,2013-02-17 09:15:00,
2013-02-17 04:20:00,12.9,9.2,29.95,NNW,331,0.0,0.0,85,0.00,,SCT050,0.00,0.00,VWS V14.01,2013-02-17 09:20:00,
2013-02-17 04:25:00,12.8,9.1,29.95,NNW,331,0.0,0.0,85,0.00,,SCT050,0.00,0.00,VWS V14.01,2013-02-17 09:25:00,
2013-02-17 04:30:00,12.6,9.0,29.95,NNW,331,0.0,0.0,85,0.00,,SCT050,0.00,0.00,VWS V14.01,2013-02-17 09:30:00,
2013-02-17 04:35:00,12.4,8.8,29.95,NNW,331,0.0,0.0,85,0.00,,SCT050,0.00,0.00,VWS V14.01,2013-02-17 09:35:00,
2013-02-17 04:40:00,12.4,8.8,29.95,NNW,331,0.0,0.0,85,0.00,,SCT050,0.00,0.00,VWS V14.01,2013-02-17 09:40:00,
2013-02-17 04:45:00,12.3,8.7,29.95,NNW,331,0.0,0.0,85,0.00,,SCT050,0.00,0.00,VWS V14.01,2013-02-17 09:45:00,
2013-02-17 04:50:00,12.3,8.7,29.95,NNW,331,0.0,0.0,85,0.00,,SCT050,0.00,0.00,VWS V14.01,2013-02-17 09:50:00,
2013-02-17 04:55:00,12.3,8.7,29.95,NNW,331,0.0,0.0,85,0.00,,SCT050,0.00,0.00,VWS V14.01,2013-02-17 09:55:00,
2013-02-17 05:00:00,12.3,8.7,29.95,NNW,331,0.0,0.0,85,0.00,,SCT050,0.00,0.00,VWS V14.01,2013-02-17 10:00:00,
2013-02-17 05:05:00,12.3,8.7,29.96,NNW,331,0.0,0.0,85,0.00,,SCT050,0.00,0.00,VWS V14.01,2013-02-17 10:05:00,
2013-02-17 05:10:00,12.3,8.7,29.96,NNW,331,0.0,0.0,85,0.00,,SCT050,0.00,0.00,VWS V14.01,2013-02-17 10:10:00,
2013-02-17 05:15:00,12.3,8.7,29.96,NNW,331,0.0,0.0,85,0.00,,SCT050,0.00,0.00,VWS V14.01,2013-02-17 10:15:00,
2013-02-17 05:20:00,12.4,8.8,29.97,NNW,331,0.0,0.0,85,0.00,,OVC055,0.00,0.00,VWS V14.01,2013-02-17 10:20:00,
2013-02-17 05:25:00,12.4,8.8,29.97,NNW,331,0.0,0.0,85,0.00,,OVC055,0.00,0.00,VWS V14.01,2013-02-17 10:25:00,
2013-02-17 05:30:00,12.4,8.8,29.97,NNW,331,0.0,0.0,85,0.00,,OVC055,0.00,0.00,VWS V14.01,2013-02-17 10:30:00,
2013-02-17 05:35:00,12.6,9.0,29.97,NNW,331,0.0,0.0,85,0.00,,OVC055,0.00,0.00,VWS V14.01,2013-02-17 10:35:00,
2013-02-17 05:40:00,12.6,9.0,29.97,NNW,331,0.0,0.0,85,0.00,,OVC055,0.00,0.00,VWS V14.01,2013-02-17 10:40:00,
2013-02-17 05:45:00,12.6,9.0,29.97,NNW,331,0.0,0.0,85,0.00,,OVC055,0.00,0.00,VWS V14.01,2013-02-17 10:45:00,
2013-02-17 05:50:00,12.8,9.1,29.97,NNW,331,0.0,0.0,85,0.00,,OVC055,0.00,0.00,VWS V14.01,2013-02-17 10:50:00,
2013-02-17 05:55:00,12.8,9.1,29.97,NNW,331,0.0,0.0,85,0.00,,OVC055,0.00,0.00,VWS V14.01,2013-02-17 10:55:00,
2013-02-17 06:00:00,12.8,9.1,29.97,NNW,331,0.0,0.0,85,0.00,,OVC055,0.00,0.00,VWS V14.01,2013-02-17 11:00:00,
2013-02-17 06:05:00,12.9,9.5,29.97,NNW,331,0.0,0.0,86,0.00,,OVC055,0.00,0.00,VWS V14.01,2013-02-17 11:05:00,
2013-02-17 06:10:00,12.9,9.5,29.97,NNW,331,0.0,0.0,86,0.00,,OVC055,0.00,0.00,VWS V14.01,2013-02-17 11:10:00,
2013-02-17 06:15:00,12.9,9.5,29.97,NNW,331,0.0,0.0,86,0.00,,OVC055,0.00,0.00,VWS V14.01,2013-02-17 11:15:00,
2013-02-17 06:20:00,13.1,9.7,29.97,NNW,331,0.0,0.0,86,0.00,,,0.00,0.00,VWS V14.01,2013-02-17 11:20:00,
2013-02-17 06:25:00,13.1,9.7,29.97,NNW,331,0.0,0.0,86,0.00,,,0.00,0.00,VWS V14.01,2013-02-17 11:25:00,
2013-02-17 06:30:00,13.1,9.7,29.97,NNW,331,0.0,0.0,86,0.00,,,0.00,0.00,VWS V14.01,2013-02-17 11:30:00,
2013-02-17 06:35:00,13.3,9.9,29.97,NNW,331,0.0,0.0,86,0.00,,,0.00,0.00,VWS V14.01,2013-02-17 11:35:00,
2013-02-17 06:40:00,13.3,9.9,29.97,NNW,331,0.0,0.0,86,0.00,,,0.00,0.00,VWS V14.01,2013-02-17 11:40:00,
2013-02-17 06:45:00,13.3,9.9,29.97,NNW,331,0.0,0.0,86,0.00,,,0.00,0.00,VWS V14.01,2013-02-17 11:45:00,
2013-02-17 06:50:00,13.3,9.9,29.99,NNW,331,0.0,0.0,86,0.00,,,0.00,0.00,VWS V14.01,2013-02-17 11:50:00,
2013-02-17 06:55:00,13.3,9.9,29.99,NNW,331,0.0,0.0,86,0.00,,,0.00,0.00,VWS V14.01,2013-02-17 11:55:00,
2013-02-17 07:00:00,13.3,9.9,29.99,NNW,331,0.0,0.0,86,0.00,,,0.00,0.00,VWS V14.01,2013-02-17 12:00:00,
2013-02-17 07:05:00,13.3,9.9,29.99,NNW,331,0.0,0.0,86,0.00,,,0.00,0.00,VWS V14.01,2013-02-17 12:05:00,
2013-02-17 07:10:00,13.3,9.9,29.99,NNW,331,0.0,0.0,86,0.00,,,0.00,0.00,VWS V14.01,2013-02-17 12:10:00,
2013-02-17 07:15:00,13.3,9.9,29.99,NNW,331,0.0,0.0,86,0.00,,,0.00,0.00,VWS V14.01,2013-02-17 12:15:00,
2013-02-17 07:20:00,13.3,9.9,30.00,NNW,331,0.0,0.0,86,0.00,,,0.00,0.00,VWS V14.01,2013-02-17 12:20:00,
2013-02-17 07:25:00,13.3,9.9,30.00,NNW,331,0.0,0.0,86,0.00,,OVC048,0.00,0.00,VWS V14.01,2013-02-17 12:25:00,
2013-02-17 07:30:00,13.3,9.9,30.00,NNW,331,0.0,0.0,86,0.00,,OVC048,0.00,0.00,VWS V14.01,2013-02-17 12:30:00,
2013-02-17 07:35:00,13.3,9.9,30.00,NNW,331,0.0,0.0,86,0.00,,OVC048,0.00,0.00,VWS V14.01,2013-02-17 12:35:00,
2013-02-17 07:40:00,13.3,9.9,30.00,NNW,331,0.0,0.0,86,0.00,,OVC048,0.00,0.00,VWS V14.01,2013-02-17 12:40:00,
2013-02-17 07:45:00,13.3,9.9,30.00,NNW,331,0.0,0.0,86,0.00,,OVC048,0.00,0.00,VWS V14.01,2013-02-17 12:45:00,
2013-02-17 07:50:00,13.3,9.9,30.00,NNW,331,0.0,0.0,86,0.00,,OVC048,0.00,0.00,VWS V14.01,2013-02-17 12:50:00,
2013-02-17 07:55:00,13.3,9.9,30.00,NNW,331,0.0,0.0,86,0.00,,OVC048,0.00,5.00,VWS V14.01,2013-02-17 12:55:00,
2013-02-17 08:00:00,13.5,10.1,30.00,NNW,331,0.0,0.0,86,0.00,,OVC048,0.00,7.00,VWS V14.01,2013-02-17 13:00:00,
2013-02-17 08:05:00,13.5,10.1,30.00,NNW,331,0.0,0.0,86,0.00,,OVC048,0.00,9.00,VWS V14.01,2013-02-17 13:05:00,
2013-02-17 08:10:00,13.5,10.1,30.00,NNW,331,0.0,0.0,86,0.00,,OVC048,0.00,14.00,VWS V14.01,2013-02-17 13:10:00,
2013-02-17 08:15:00,13.6,10.2,30.00,NNW,331,0.0,0.0,86,0.00,,OVC048,0.00,16.00,VWS V14.01,2013-02-17 13:15:00,
2013-02-17 08:20:00,13.6,10.2,30.01,NNW,331,0.0,0.0,86,0.00,,OVC048,0.00,19.00,VWS V14.01,2013-02-17 13:20:00,
2013-02-17 08:25:00,13.8,10.4,30.01,NNW,331,0.0,0.0,86,0.00,,OVC048,0.00,23.00,VWS V14.01,2013-02-17 13:25:00,
2013-02-17 08:30:00,14.0,10.9,30.01,NNW,331,0.0,0.0,87,0.00,,OVC048,0.00,25.00,VWS V14.01,2013-02-17 13:30:00,
2013-02-17 08:35:00,14.1,10.9,30.02,NNW,331,0.0,0.0,87,0.00,,OVC048,0.00,30.00,VWS V14.01,2013-02-17 13:35:00,
2013-02-17 08:40:00,14.1,10.9,30.02,NNW,331,0.0,0.0,87,0.00,,OVC048,0.00,33.00,VWS V14.01,2013-02-17 13:40:00,
2013-02-17 08:45:00,14.3,11.1,30.02,NNW,331,0.0,0.0,87,0.00,,OVC048,0.00,42.00,VWS V14.01,2013-02-17 13:45:00,
2013-02-17 08:50:00,14.6,11.4,30.02,NNW,331,0.0,0.0,87,0.00,,OVC048,0.00,53.00,VWS V14.01,2013-02-17 13:50:00,
2013-02-17 08:55:00,14.8,11.6,30.02,NNW,331,0.0,0.0,87,0.00,,OVC048,0.00,54.00,VWS V14.01,2013-02-17 13:55:00,
2013-02-17 09:00:00,15.1,11.9,30.02,NNW,331,0.0,0.0,87,0.00,,OVC048,0.00,49.00,VWS V14.01,2013-02-17 14:00:00,
2013-02-17 09:05:00,15.4,12.5,30.02,NNW,331,0.0,0.0,88,0.00,,OVC048,0.00,51.00,VWS V14.01,2013-02-17 14:05:00,
2013-02-17 09:10:00,15.7,12.8,30.02,NNW,331,0.0,0.0,88,0.00,,OVC048,0.00,53.00,VWS V14.01,2013-02-17 14:10:00,
2013-02-17 09:15:00,16.1,13.2,30.02,NNW,331,0.0,0.0,88,0.00,,OVC048,0.00,58.00,VWS V14.01,2013-02-17 14:15:00,
2013-02-17 09:20:00,16.4,13.5,30.02,NNW,331,0.0,0.0,88,0.00,,OVC048,0.00,70.00,VWS V14.01,2013-02-17 14:20:00,
2013-02-17 09:25:00,16.7,13.8,30.02,NNW,331,0.0,0.0,88,0.00,,OVC050,0.00,74.00,VWS V14.01,2013-02-17 14:25:00,
2013-02-17 09:30:00,17.0,14.1,30.02,NNW,331,0.0,0.0,88,0.00,,OVC050,0.00,74.00,VWS V14.01,2013-02-17 14:30:00,
2013-02-17 09:35:00,17.2,14.3,30.02,NNW,331,0.0,0.0,88,0.00,,OVC050,0.00,77.00,VWS V14.01,2013-02-17 14:35:00,
2013-02-17 09:40:00,17.5,14.6,30.02,NNW,331,0.0,0.0,88,0.00,,OVC050,0.00,88.00,VWS V14.01,2013-02-17 14:40:00,
2013-02-17 09:45:00,17.8,14.9,30.02,NNW,331,0.0,0.0,88,0.00,,OVC050,0.00,81.00,VWS V14.01,2013-02-17 14:45:00,
2013-02-17 09:50:00,18.0,14.8,30.02,NNW,331,0.0,0.0,87,0.00,,OVC050,0.00,91.00,VWS V14.01,2013-02-17 14:50:00,
2013-02-17 09:55:00,18.1,14.9,30.02,NNW,331,0.0,0.0,87,0.00,,OVC050,0.00,95.00,VWS V14.01,2013-02-17 14:55:00,
2013-02-17 10:00:00,18.6,15.4,30.02,NNW,331,0.0,0.0,87,0.00,,OVC050,0.00,91.00,VWS V14.01,2013-02-17 15:00:00,
2013-02-17 10:05:00,18.9,15.7,30.02,ESE,109,0.0,0.0,87,0.00,,OVC050,0.00,84.00,VWS V14.01,2013-02-17 15:05:00,
2013-02-17 10:10:00,19.2,15.7,30.02,East,101,0.0,0.0,86,0.00,,OVC050,0.00,83.00,VWS V14.01,2013-02-17 15:10:00,
2013-02-17 10:15:00,19.2,15.4,30.02,SE,140,1.0,0.0,85,0.00,,OVC050,0.00,86.00,VWS V14.01,2013-02-17 15:15:00,
2013-02-17 10:20:00,19.1,15.1,30.03,SE,140,0.0,0.0,84,0.00,,OVC050,0.00,163.00,VWS V14.01,2013-02-17 15:20:00,
2013-02-17 10:25:00,19.4,15.4,30.03,SE,134,2.0,0.0,84,0.00,,,0.00,234.00,VWS V14.01,2013-02-17 15:25:00,
2013-02-17 10:30:00,19.7,15.4,30.03,SE,140,0.0,0.0,83,0.00,,,0.00,167.00,VWS V14.01,2013-02-17 15:30:00,
2013-02-17 10:35:00,20.0,15.4,30.03,SE,141,0.0,0.0,82,0.00,,,0.00,176.00,VWS V14.01,2013-02-17 15:35:00,
2013-02-17 10:40:00,20.3,15.1,30.03,SE,138,2.0,0.0,80,0.00,,,0.00,218.00,VWS V14.01,2013-02-17 15:40:00,
2013-02-17 10:45:00,20.6,14.8,30.03,SE,136,1.0,0.0,78,0.00,,,0.00,218.00,VWS V14.01,2013-02-17 15:45:00,
2013-02-17 10:50:00,20.8,13.8,30.03,SE,130,1.0,0.0,74,0.00,,,0.00,148.00,VWS V14.01,2013-02-17 15:50:00,
2013-02-17 10:55:00,21.0,13.1,30.03,SE,136,0.0,0.0,71,0.00,,,0.00,132.00,VWS V14.01,2013-02-17 15:55:00,
2013-02-17 11:00:00,21.1,12.2,30.03,SE,136,0.0,0.0,68,0.00,,,0.00,141.00,VWS V14.01,2013-02-17 16:00:00,
2013-02-17 11:05:00,21.6,12.4,30.03,West,264,0.0,0.0,67,0.00,,,0.00,142.00,VWS V14.01,2013-02-17 16:05:00,
2013-02-17 11:10:00,21.8,12.5,30.03,WSW,242,0.0,0.0,67,0.00,,,0.00,134.00,VWS V14.01,2013-02-17 16:10:00,
2013-02-17 11:15:00,22.1,12.5,30.03,SW,223,0.0,0.0,66,0.00,,,0.00,142.00,VWS V14.01,2013-02-17 16:15:00,
2013-02-17 11:20:00,22.4,12.8,30.03,WSW,254,0.0,0.0,66,0.00,,,0.00,190.00,VWS V14.01,2013-02-17 16:20:00,
2013-02-17 11:25:00,23.0,13.7,30.03,WSW,254,0.0,0.0,67,0.00,,,0.00,172.00,VWS V14.01,2013-02-17 16:25:00,
2013-02-17 11:30:00,23.2,12.8,30.03,ESE,116,0.0,0.0,64,0.00,,,0.00,156.00,VWS V14.01,2013-02-17 16:30:00,
2013-02-17 11:35:00,23.5,12.8,30.03,SSE,161,0.0,0.0,63,0.00,,,0.00,132.00,VWS V14.01,2013-02-17 16:35:00,
2013-02-17 11:40:00,23.5,12.4,30.03,SE,130,0.0,0.0,62,0.00,,,0.00,134.00,VWS V14.01,2013-02-17 16:40:00,
2013-02-17 11:45:00,23.6,12.5,30.03,SE,134,1.0,0.0,62,0.00,,,0.00,148.00,VWS V14.01,2013-02-17 16:45:00,
2013-02-17 11:50:00,23.5,12.4,30.03,SE,134,1.0,0.0,62,0.00,,,0.00,151.00,VWS V14.01,2013-02-17 16:50:00,
2013-02-17 11:55:00,23.3,12.6,30.03,West,265,0.0,0.0,63,0.00,,,0.00,158.00,VWS V14.01,2013-02-17 16:55:00,
2013-02-17 12:00:00,23.8,13.4,30.03,ESE,104,1.0,0.0,64,0.00,,,0.00,167.00,VWS V14.01,2013-02-17 17:00:00,
2013-02-17 12:05:00,24.1,13.7,30.03,SSW,193,0.0,0.0,64,0.00,,,0.00,207.00,VWS V14.01,2013-02-17 17:05:00,
2013-02-17 12:10:00,24.5,14.4,30.03,SSW,205,0.0,0.0,65,0.00,,,0.00,213.00,VWS V14.01,2013-02-17 17:10:00,
2013-02-17 12:15:00,24.8,14.7,30.03,WSW,245,1.0,0.0,65,0.00,,,0.00,227.00,VWS V14.01,2013-02-17 17:15:00,
2013-02-17 12:20:00,25.3,14.8,30.03,West,263,0.0,0.0,64,0.00,,,0.00,258.00,VWS V14.01,2013-02-17 17:20:00,
2013-02-17 12:25:00,25.4,14.6,30.03,NW,319,2.0,0.0,63,0.01,,FEW048,0.01,290.00,VWS V14.01,2013-02-17 17:25:00,
2013-02-17 12:30:00,24.4,14.0,30.03,NNW,333,0.0,0.0,64,0.01,,FEW048,0.01,279.00,VWS V14.01,2013-02-17 17:30:00,
2013-02-17 12:35:00,24.2,13.1,30.02,North,355,0.0,0.0,62,0.01,,FEW048,0.01,494.00,VWS V14.01,2013-02-17 17:35:00,
2013-02-17 12:40:00,24.7,14.3,30.02,South,184,0.0,0.0,64,0.01,,FEW048,0.01,585.00,VWS V14.01,2013-02-17 17:40:00,
2013-02-17 12:45:00,25.7,14.5,30.02,NW,325,2.0,0.0,62,0.02,,FEW048,0.02,394.00,VWS V14.01,2013-02-17 17:45:00,
2013-02-17 12:50:00,24.7,13.2,30.01,West,276,0.0,0.0,61,0.02,,FEW048,0.02,540.00,VWS V14.01,2013-02-17 17:50:00,
2013-02-17 12:55:00,25.1,13.2,30.01,East,85,0.0,0.0,60,0.02,,FEW048,0.02,227.00,VWS V14.01,2013-02-17 17:55:00,
2013-02-17 13:00:00,24.2,12.3,30.01,South,183,0.0,0.0,60,0.02,,FEW048,0.02,195.00,VWS V14.01,2013-02-17 18:00:00,
2013-02-17 13:05:00,24.2,12.7,30.01,South,183,0.0,0.0,61,0.02,,FEW048,0.02,255.00,VWS V14.01,2013-02-17 18:05:00,
2013-02-17 13:10:00,24.4,12.1,30.01,South,184,0.0,0.0,59,0.02,,FEW048,0.02,220.00,VWS V14.01,2013-02-17 18:10:00,
2013-02-17 13:15:00,24.8,13.3,30.01,NNW,343,0.0,0.0,61,0.02,,FEW048,0.02,257.00,VWS V14.01,2013-02-17 18:15:00,
2013-02-17 13:20:00,26.0,14.0,30.01,WNW,294,1.0,0.0,60,0.02,,FEW048,0.02,596.00,VWS V14.01,2013-02-17 18:20:00,
2013-02-17 13:25:00,26.0,11.2,30.01,North,360,0.0,0.0,53,0.02,,CLR,0.02,547.00,VWS V14.01,2013-02-17 18:25:00,
2013-02-17 13:30:00,26.1,11.3,30.01,ESE,121,0.0,0.0,53,0.02,,CLR,0.02,397.00,VWS V14.01,2013-02-17 18:30:00,
2013-02-17 13:35:00,25.8,10.6,30.00,SE,144,1.0,0.0,52,0.02,,CLR,0.02,650.00,VWS V14.01,2013-02-17 18:35:00,
2013-02-17 13:40:00,26.7,11.9,30.00,SW,234,0.0,0.0,53,0.02,,CLR,0.02,445.00,VWS V14.01,2013-02-17 18:40:00,
2013-02-17 13:45:00,26.6,11.4,30.00,SW,219,0.0,0.0,52,0.02,,CLR,0.02,647.00,VWS V14.01,2013-02-17 18:45:00,
2013-02-17 13:50:00,26.9,10.8,29.99,SSE,163,1.0,0.0,50,0.01,,CLR,0.03,485.00,VWS V14.01,2013-02-17 18:50:00,
2013-02-17 13:55:00,26.4,11.2,29.99,SSW,196,2.0,0.0,52,0.01,,CLR,0.03,643.00,VWS V14.01,2013-02-17 18:55:00,
2013-02-17 14:00:00,25.8,9.3,29.99,SE,142,0.0,0.0,49,0.01,,CLR,0.03,649.00,VWS V14.01,2013-02-17 19:00:00,
2013-02-17 14:05:00,25.3,8.4,29.99,SE,144,0.0,0.0,48,0.01,,CLR,0.03,127.00,VWS V14.01,2013-02-17 19:05:00,
2013-02-17 14:10:00,25.1,9.5,29.99,WNW,290,0.0,0.0,51,0.01,,CLR,0.03,127.00,VWS V14.01,2013-02-17 19:10:00,
2013-02-17 14:15:00,25.1,9.5,29.99,SSE,165,0.0,0.0,51,0.01,,CLR,0.03,141.00,VWS V14.01,2013-02-17 19:15:00,
2013-02-17 14:20:00,25.4,10.2,30.00,SSW,196,0.0,0.0,52,0.01,,CLR,0.03,520.00,VWS V14.01,2013-02-17 19:20:00,
2013-02-17 14:25:00,26.0,9.9,30.00,WSW,248,0.0,0.0,50,0.01,,FEW037,0.03,548.00,VWS V14.01,2013-02-17 19:25:00,
2013-02-17 14:30:00,26.7,11.0,30.00,SE,136,0.0,0.0,51,0.01,,FEW037,0.03,554.00,VWS V14.01,2013-02-17 19:30:00,
2013-02-17 14:35:00,26.7,9.7,30.00,WSW,249,0.0,0.0,48,0.01,,FEW037,0.03,554.00,VWS V14.01,2013-02-17 19:35:00,
2013-02-17 14:40:00,26.9,7.4,30.00,NW,317,1.0,0.0,43,0.01,,FEW037,0.03,545.00,VWS V14.01,2013-02-17 19:40:00,
2013-02-17 14:45:00,26.4,7.9,30.00,ESE,120,0.0,0.0,45,0.01,,FEW037,0.03,541.00,VWS V14.01,2013-02-17 19:45:00,
2013-02-17 14:50:00,26.3,7.9,29.99,ESE,117,0.0,0.0,45,0.00,,FEW037,0.03,327.00,VWS V14.01,2013-02-17 19:50:00,
2013-02-17 14:55:00,26.7,9.2,29.99,West,275,0.0,0.0,47,0.00,,FEW037,0.03,355.00,VWS V14.01,2013-02-17 19:55:00,
2013-02-17 15:00:00,26.7,8.7,29.99,NW,315,0.0,0.0,46,0.00,,FEW037,0.03,267.00,VWS V14.01,2013-02-17 20:00:00,
2013-02-17 15:05:00,26.6,9.6,29.99,WSW,252,0.0,0.0,48,0.00,,FEW037,0.03,258.00,VWS V14.01,2013-02-17 20:05:00,
2013-02-17 15:10:00,26.9,9.9,29.99,South,191,1.0,0.0,48,0.00,,FEW037,0.03,327.00,VWS V14.01,2013-02-17 20:10:00,
2013-02-17 15:15:00,26.6,9.6,29.99,SSW,200,0.0,0.0,48,0.00,,FEW037,0.03,316.00,VWS V14.01,2013-02-17 20:15:00,
2013-02-17 15:20:00,26.6,10.5,29.98,West,265,0.0,0.0,50,0.00,,FEW037,0.03,185.00,VWS V14.01,2013-02-17 20:20:00,
2013-02-17 15:25:00,26.4,10.7,29.98,West,264,0.0,0.0,51,0.00,,CLR,0.03,186.00,VWS V14.01,2013-02-17 20:25:00,
2013-02-17 15:30:00,26.6,10.9,29.98,South,188,0.0,0.0,51,0.00,,CLR,0.03,130.00,VWS V14.01,2013-02-17 20:30:00,
2013-02-17 15:35:00,26.6,10.5,29.98,WSW,247,0.0,0.0,50,0.00,,CLR,0.03,121.00,VWS V14.01,2013-02-17 20:35:00,
2013-02-17 15:40:00,26.4,10.3,29.98,ESE,117,1.0,0.0,50,0.00,,CLR,0.03,144.00,VWS V14.01,2013-02-17 20:40:00,
2013-02-17 15:45:00,26.6,10.5,29.98,ESE,118,0.0,0.0,50,0.00,,CLR,0.03,105.00,VWS V14.01,2013-02-17 20:45:00,
2013-02-17 15:50:00,26.9,10.8,29.98,WSW,249,0.0,0.0,50,0.00,,CLR,0.03,58.00,VWS V14.01,2013-02-17 20:50:00,
2013-02-17 15:55:00,26.7,10.6,29.98,SSW,205,0.0,0.0,50,0.00,,CLR,0.03,65.00,VWS V14.01,2013-02-17 20:55:00,
2013-02-17 16:00:00,26.6,9.6,29.98,SSW,207,0.0,0.0,48,0.00,,CLR,0.03,72.00,VWS V14.01,2013-02-17 21:00:00,
2013-02-17 16:05:00,26.7,10.6,29.98,NW,312,0.0,0.0,50,0.00,,CLR,0.03,44.00,VWS V14.01,2013-02-17 21:05:00,
2013-02-17 16:10:00,26.7,10.1,29.98,SSW,192,0.0,0.0,49,0.00,,CLR,0.03,37.00,VWS V14.01,2013-02-17 21:10:00,
2013-02-17 16:15:00,26.7,10.1,29.98,NNE,26,0.0,0.0,49,0.00,,CLR,0.03,39.00,VWS V14.01,2013-02-17 21:15:00,
2013-02-17 16:20:00,26.9,9.4,29.97,SW,219,0.0,0.0,47,0.00,,CLR,0.03,49.00,VWS V14.01,2013-02-17 21:20:00,
2013-02-17 16:25:00,27.0,10.4,29.97,WNW,294,0.0,0.0,49,0.00,,CLR,0.03,83.00,VWS V14.01,2013-02-17 21:25:00,
2013-02-17 16:30:00,27.0,9.9,29.97,West,279,0.0,0.0,48,0.00,,CLR,0.03,33.00,VWS V14.01,2013-02-17 21:30:00,
2013-02-17 16:35:00,27.2,10.1,29.97,East,82,0.0,0.0,48,0.00,,CLR,0.03,39.00,VWS V14.01,2013-02-17 21:35:00,
2013-02-17 16:40:00,27.0,9.5,29.97,NNW,329,0.0,0.0,47,0.00,,CLR,0.03,33.00,VWS V14.01,2013-02-17 21:40:00,
2013-02-17 16:45:00,27.0,9.5,29.97,WNW,297,0.0,0.0,47,0.00,,CLR,0.03,32.00,VWS V14.01,2013-02-17 21:45:00,
2013-02-17 16:50:00,26.9,9.4,29.97,WSW,255,0.0,0.0,47,0.00,,CLR,0.03,33.00,VWS V14.01,2013-02-17 21:50:00,
2013-02-17 16:55:00,26.9,9.9,29.97,WNW,282,1.0,0.0,48,0.00,,CLR,0.03,47.00,VWS V14.01,2013-02-17 21:55:00,
2013-02-17 17:00:00,27.0,8.5,29.97,WNW,282,0.0,0.0,45,0.00,,CLR,0.03,56.00,VWS V14.01,2013-02-17 22:00:00,
2013-02-17 17:05:00,27.0,9.0,29.97,WSW,240,0.0,0.0,46,0.00,,CLR,0.03,35.00,VWS V14.01,2013-02-17 22:05:00,
2013-02-17 17:10:00,27.2,10.1,29.97,WSW,240,0.0,0.0,48,0.00,,CLR,0.03,49.00,VWS V14.01,2013-02-17 22:10:00,
2013-02-17 17:15:00,26.9,9.9,29.97,WSW,240,0.0,0.0,48,0.00,,CLR,0.03,46.00,VWS V14.01,2013-02-17 22:15:00,
2013-02-17 17:20:00,26.7,8.7,29.96,WSW,246,0.0,0.0,46,0.00,,CLR,0.03,21.00,VWS V14.01,2013-02-17 22:20:00,
2013-02-17 17:25:00,26.7,8.2,29.96,NW,307,0.0,0.0,45,0.00,,CLR,0.03,21.00,VWS V14.01,2013-02-17 22:25:00,
2013-02-17 17:30:00,26.7,8.2,29.96,NE,37,0.0,0.0,45,0.00,,CLR,0.03,19.00,VWS V14.01,2013-02-17 22:30:00,
2013-02-17 17:34:00,26.6,8.6,29.96,NE,48,0.0,0.0,46,0.00,,CLR,0.03,18.00,VWS V14.01,2013-02-17 22:34:00,
2013-02-17 17:39:00,26.3,8.8,29.96,NNW,345,0.0,0.0,47,0.00,,CLR,0.03,14.00,VWS V14.01,2013-02-17 22:39:00,
2013-02-17 17:44:00,26.1,8.2,29.96,NNW,341,0.0,0.0,46,0.00,,CLR,0.03,12.00,VWS V14.01,2013-02-17 22:44:00,
2013-02-17 17:49:00,26.0,7.6,29.96,NNW,341,0.0,0.0,45,0.00,,CLR,0.03,11.00,VWS V14.01,2013-02-17 22:49:00,
2013-02-17 17:54:00,25.8,7.4,29.96,NNW,341,0.0,0.0,45,0.00,,CLR,0.03,11.00,VWS V14.01,2013-02-17 22:54:00,
2013-02-17 17:59:00,25.7,7.8,29.96,NNW,340,0.0,0.0,46,0.00,,CLR,0.03,9.00,VWS V14.01,2013-02-17 22:59:00,
2013-02-17 18:00:00,26.7,9.2,29.96,WSW,246,0.0,0.0,47,0.00,,OVC017,0.03,25.00,VWS V14.01,2013-02-17 23:00:00,
2013-02-17 18:04:00,25.6,8.2,29.96,NNW,339,0.0,0.0,47,0.00,,CLR,0.03,7.00,VWS V14.01,2013-02-17 23:04:00,
2013-02-17 18:09:00,25.4,8.0,29.96,East,82,0.0,0.0,47,0.00,,CLR,0.03,5.00,VWS V14.01,2013-02-17 23:09:00,
2013-02-17 18:14:00,25.3,7.9,29.96,East,82,0.0,0.0,47,0.00,,CLR,0.03,0.00,VWS V14.01,2013-02-17 23:14:00,
2013-02-17 18:19:00,25.0,8.6,29.96,East,82,0.0,0.0,49,0.00,,CLR,0.03,0.00,VWS V14.01,2013-02-17 23:19:00,
2013-02-17 18:24:00,24.7,7.8,29.96,East,82,0.0,0.0,48,0.00,,CLR,0.03,0.00,VWS V14.01,2013-02-17 23:24:00,
2013-02-17 18:29:00,24.7,8.7,29.96,East,82,0.0,0.0,50,0.00,,CLR,0.03,0.00,VWS V14.01,2013-02-17 23:29:00,
2013-02-17 18:30:00,26.0,8.1,29.96,NNW,341,0.0,0.0,46,0.00,,OVC017,0.03,12.00,VWS V14.01,2013-02-17 23:30:00,
2013-02-17 18:34:00,24.2,8.7,29.96,East,82,0.0,0.0,51,0.00,,CLR,0.03,0.00,VWS V14.01,2013-02-17 23:34:00,
2013-02-17 18:39:00,23.9,9.3,29.96,East,82,0.0,0.0,53,0.00,,CLR,0.03,0.00,VWS V14.01,2013-02-17 23:39:00,
2013-02-17 18:44:00,23.8,8.3,29.96,East,82,0.0,0.0,51,0.00,,CLR,0.03,0.00,VWS V14.01,2013-02-17 23:44:00,
2013-02-17 18:49:00,23.9,8.4,29.96,East,82,0.0,0.0,51,0.00,,CLR,0.03,0.00,VWS V14.01,2013-02-17 23:49:00,
2013-02-17 18:54:00,23.9,8.4,29.96,East,82,0.0,0.0,51,0.00,,CLR,0.03,0.00,VWS V14.01,2013-02-17 23:54:00,
2013-02-17 18:59:00,23.8,9.6,29.96,East,82,0.0,0.0,54,0.00,,CLR,0.03,0.00,VWS V14.01,2013-02-17 23:59:00,
2013-02-17 19:00:00,25.0,8.6,29.96,East,82,0.0,0.0,49,0.00,,OVC017,0.03,0.00,VWS V14.01,2013-02-18 00:00:00,
2013-02-17 19:04:00,23.6,9.0,29.96,East,82,0.0,0.0,53,0.00,,CLR,0.03,0.00,VWS V14.01,2013-02-18 00:04:00,
2013-02-17 19:09:00,23.5,8.9,29.96,East,82,0.0,0.0,53,0.00,,CLR,0.03,0.00,VWS V14.01,2013-02-18 00:09:00,
2013-02-17 19:14:00,23.0,8.9,29.96,East,82,0.0,0.0,54,0.00,,CLR,0.03,0.00,VWS V14.01,2013-02-18 00:14:00,
2013-02-17 19:19:00,22.9,9.6,29.95,East,82,0.0,0.0,56,0.00,,CLR,0.03,0.00,VWS V14.01,2013-02-18 00:19:00,
2013-02-17 19:24:00,22.9,9.6,29.95,SSE,150,0.0,0.0,56,0.00,,CLR,0.03,0.00,VWS V14.01,2013-02-18 00:24:00,
2013-02-17 19:29:00,23.2,9.4,29.95,SSE,150,0.0,0.0,55,0.00,,CLR,0.03,0.00,VWS V14.01,2013-02-18 00:29:00,
2013-02-17 19:30:00,23.8,7.9,29.96,East,82,0.0,0.0,50,0.00,,OVC017,0.03,0.00,VWS V14.01,2013-02-18 00:30:00,
2013-02-17 19:34:00,23.0,9.7,29.95,SSE,150,0.0,0.0,56,0.00,,CLR,0.03,0.00,VWS V14.01,2013-02-18 00:34:00,
2013-02-17 19:39:00,22.7,10.2,29.95,SSE,150,0.0,0.0,58,0.00,,CLR,0.03,0.00,VWS V14.01,2013-02-18 00:39:00,
2013-02-17 19:44:00,22.5,10.0,29.95,SSE,150,0.0,0.0,58,0.00,,CLR,0.03,0.00,VWS V14.01,2013-02-18 00:44:00,
2013-02-17 19:49:00,22.5,10.0,29.95,SSE,150,0.0,0.0,58,0.00,,CLR,0.03,0.00,VWS V14.01,2013-02-18 00:49:00,
2013-02-17 19:54:00,22.2,10.1,29.95,SSE,150,0.0,0.0,59,0.00,,CLR,0.03,0.00,VWS V14.01,2013-02-18 00:54:00,
2013-02-17 19:59:00,21.9,9.8,29.95,SSE,150,0.0,0.0,59,0.00,,CLR,0.03,0.00,VWS V14.01,2013-02-18 00:59:00,
2013-02-17 20:00:00,23.0,9.2,29.95,East,82,0.0,0.0,55,0.00,,OVC017,0.03,0.00,VWS V14.01,2013-02-18 01:00:00,
2013-02-17 20:04:00,21.8,10.1,29.96,SSE,150,0.0,0.0,60,0.00,,CLR,0.03,0.00,VWS V14.01,2013-02-18 01:04:00,
2013-02-17 20:09:00,21.6,10.2,29.96,SSE,150,0.0,0.0,61,0.00,,CLR,0.03,0.00,VWS V14.01,2013-02-18 01:09:00,
2013-02-17 20:14:00,21.6,10.2,29.96,SSE,150,0.0,0.0,61,0.00,,CLR,0.03,0.00,VWS V14.01,2013-02-18 01:14:00,
2013-02-17 20:19:00,21.4,10.1,29.96,SSE,150,0.0,0.0,61,0.00,,CLR,0.03,0.00,VWS V14.01,2013-02-18 01:19:00,
2013-02-17 20:24:00,21.1,10.5,29.96,SSE,150,0.0,0.0,63,0.00,,CLR,0.03,0.00,VWS V14.01,2013-02-18 01:24:00,
2013-02-17 20:29:00,20.8,10.6,29.96,SSE,150,0.0,0.0,64,0.00,,CLR,0.03,0.00,VWS V14.01,2013-02-18 01:29:00,
2013-02-17 20:30:00,22.5,10.0,29.95,SSE,150,0.0,0.0,58,0.00,,OVC017,0.03,0.00,VWS V14.01,2013-02-18 01:30:00,
2013-02-17 20:34:00,20.8,10.6,29.97,SSE,150,0.0,0.0,64,0.00,,CLR,0.03,0.00,VWS V14.01,2013-02-18 01:34:00,
2013-02-17 20:39:00,20.8,10.6,29.97,SSE,150,0.0,0.0,64,0.00,,CLR,0.03,0.00,VWS V14.01,2013-02-18 01:39:00,
2013-02-17 20:44:00,20.8,10.6,29.97,SSE,150,0.0,0.0,64,0.00,,CLR,0.03,0.00,VWS V14.01,2013-02-18 01:44:00,
2013-02-17 20:49:00,21.1,10.8,29.96,SSE,150,0.0,0.0,64,0.00,,CLR,0.03,0.00,VWS V14.01,2013-02-18 01:49:00,
2013-02-17 20:54:00,21.1,10.8,29.96,SSE,150,0.0,0.0,64,0.00,,CLR,0.03,0.00,VWS V14.01,2013-02-18 01:54:00,
2013-02-17 20:59:00,21.3,11.4,29.96,SSE,150,0.0,0.0,65,0.00,,CLR,0.03,0.00,VWS V14.01,2013-02-18 01:59:00,
2013-02-17 21:00:00,21.6,10.2,29.96,SSE,150,0.0,0.0,61,0.00,,OVC017,0.03,0.00,VWS V14.01,2013-02-18 02:00:00,
2013-02-17 21:04:00,21.4,11.5,29.96,SSE,150,0.0,0.0,65,0.00,,CLR,0.03,0.00,VWS V14.01,2013-02-18 02:04:00,
2013-02-17 21:09:00,21.6,11.3,29.96,SSE,150,0.0,0.0,64,0.00,,CLR,0.03,0.00,VWS V14.01,2013-02-18 02:09:00,
2013-02-17 21:14:00,21.4,11.1,29.96,SSE,150,0.0,0.0,64,0.00,,CLR,0.03,0.00,VWS V14.01,2013-02-18 02:14:00,
2013-02-17 21:19:00,21.3,11.7,29.95,SSE,150,0.0,0.0,66,0.00,,CLR,0.03,0.00,VWS V14.01,2013-02-18 02:19:00,
2013-02-17 21:24:00,21.0,11.4,29.95,SSE,150,0.0,0.0,66,0.00,,CLR,0.03,0.00,VWS V14.01,2013-02-18 02:24:00,
2013-02-17 21:29:00,21.0,11.4,29.95,SSE,150,0.0,0.0,66,0.00,,CLR,0.03,0.00,VWS V14.01,2013-02-18 02:29:00,
2013-02-17 21:30:00,21.0,10.8,29.96,SSE,150,0.0,0.0,64,0.00,,OVC017,0.03,0.00,VWS V14.01,2013-02-18 02:30:00,
2013-02-17 21:34:00,21.1,11.5,29.95,SSE,150,0.0,0.0,66,0.00,,CLR,0.03,0.00,VWS V14.01,2013-02-18 02:34:00,
2013-02-17 21:39:00,21.0,11.8,29.95,SSE,150,0.0,0.0,67,0.00,,CLR,0.03,0.00,VWS V14.01,2013-02-18 02:39:00,
2013-02-17 21:44:00,20.8,11.6,29.95,SSE,150,0.0,0.0,67,0.00,,CLR,0.03,0.00,VWS V14.01,2013-02-18 02:44:00,
2013-02-17 21:49:00,20.8,11.6,29.95,SSE,150,0.0,0.0,67,0.00,,CLR,0.03,0.00,VWS V14.01,2013-02-18 02:49:00,
2013-02-17 21:54:00,20.6,11.4,29.95,SSE,150,0.0,0.0,67,0.00,,CLR,0.03,0.00,VWS V14.01,2013-02-18 02:54:00,
2013-02-17 21:59:00,20.6,11.4,29.95,SE,141,0.0,0.0,67,0.00,,CLR,0.03,0.00,VWS V14.01,2013-02-18 02:59:00,
2013-02-17 22:00:00,21.3,11.7,29.95,SSE,150,0.0,0.0,66,0.00,,OVC017,0.03,0.00,VWS V14.01,2013-02-18 03:00:00,
2013-02-17 22:04:00,20.5,11.3,29.95,SE,141,0.0,0.0,67,0.00,,CLR,0.03,0.00,VWS V14.01,2013-02-18 03:04:00,
2013-02-17 22:09:00,20.5,11.6,29.95,SE,141,0.0,0.0,68,0.00,,CLR,0.03,0.00,VWS V14.01,2013-02-18 03:09:00,
2013-02-17 22:14:00,20.6,11.7,29.95,SE,142,0.0,0.0,68,0.00,,CLR,0.03,0.00,VWS V14.01,2013-02-18 03:14:00,
2013-02-17 22:19:00,20.6,11.7,29.94,SE,142,1.0,0.0,68,0.00,,CLR,0.03,0.00,VWS V14.01,2013-02-18 03:19:00,
2013-02-17 22:24:00,20.6,11.7,29.94,SE,142,0.0,0.0,68,0.00,,CLR,0.03,0.00,VWS V14.01,2013-02-18 03:24:00,
2013-02-17 22:29:00,20.8,11.9,29.94,SE,142,0.0,0.0,68,0.00,,CLR,0.03,0.00,VWS V14.01,2013-02-18 03:29:00,
2013-02-17 22:30:00,20.8,11.6,29.95,SSE,150,0.0,0.0,67,0.00,,OVC017,0.03,0.00,VWS V14.01,2013-02-18 03:30:00,
2013-02-17 22:34:00,21.0,12.1,29.94,SE,141,0.0,0.0,68,0.00,,CLR,0.03,0.00,VWS V14.01,2013-02-18 03:34:00,
2013-02-17 22:39:00,21.1,12.2,29.94,SE,132,0.0,0.0,68,0.00,,CLR,0.03,0.00,VWS V14.01,2013-02-18 03:39:00,
2013-02-17 22:44:00,21.3,12.1,29.94,SSE,150,2.0,0.0,67,0.00,,CLR,0.03,0.00,VWS V14.01,2013-02-18 03:44:00,
2013-02-17 22:49:00,21.6,12.4,29.93,SE,125,0.0,0.0,67,0.00,,CLR,0.03,0.00,VWS V14.01,2013-02-18 03:49:00,
2013-02-17 22:54:00,21.8,12.5,29.93,SE,134,0.0,0.0,67,0.00,,CLR,0.03,0.00,VWS V14.01,2013-02-18 03:54:00,
2013-02-17 22:59:00,21.9,12.6,29.93,SE,138,0.0,0.0,67,0.00,,CLR,0.03,0.00,VWS V14.01,2013-02-18 03:59:00,
2013-02-17 23:00:00,20.6,11.7,29.94,SE,142,0.0,0.0,68,0.00,,OVC017,0.03,0.00,VWS V14.01,2013-02-18 04:00:00,
2013-02-17 23:04:00,22.1,12.8,29.93,ESE,122,0.0,0.0,67,0.00,,CLR,0.03,0.00,VWS V14.01,2013-02-18 04:04:00,
2013-02-17 23:09:00,22.2,12.9,29.93,SE,135,0.0,0.0,67,0.00,,CLR,0.03,0.00,VWS V14.01,2013-02-18 04:09:00,
2013-02-17 23:14:00,22.4,13.1,29.93,SE,128,1.0,0.0,67,0.00,,CLR,0.03,0.00,VWS V14.01,2013-02-18 04:14:00,
2013-02-17 23:19:00,22.5,13.2,29.93,SE,136,1.0,0.0,67,0.00,,CLR,0.00,0.00,VWS V14.01,2013-02-18 04:19:00,
2013-02-17 23:24:00,22.7,13.4,29.93,SE,129,0.0,0.0,67,0.00,,CLR,0.00,0.00,VWS V14.01,2013-02-18 04:24:00,
2013-02-17 23:29:00,22.7,13.4,29.93,SE,143,1.0,0.0,67,0.00,,CLR,0.00,0.00,VWS V14.01,2013-02-18 04:29:00,
2013-02-17 23:30:00,21.4,12.2,29.93,SE,125,1.0,0.0,67,0.00,,OVC017,0.03,0.00,VWS V14.01,2013-02-18 04:30:00,
2013-02-17 23:34:00,22.7,13.4,29.93,SE,137,3.0,0.0,67,0.00,,CLR,0.00,0.00,VWS V14.01,2013-02-18 04:34:00,
2013-02-17 23:39:00,22.9,13.3,29.93,ESE,121,1.0,0.0,66,0.00,,CLR,0.00,0.00,VWS V14.01,2013-02-18 04:39:00,
2013-02-17 23:44:00,22.9,13.3,29.93,SE,134,1.0,0.0,66,0.00,,CLR,0.00,0.00,VWS V14.01,2013-02-18 04:44:00,
2013-02-17 23:49:00,22.9,13.3,29.93,SSE,152,0.0,0.0,66,0.00,,CLR,0.00,0.00,VWS V14.01,2013-02-18 04:49:00,
2013-02-17 23:54:00,22.9,13.3,29.93,SE,127,1.0,0.0,66,0.00,,CLR,0.00,0.00,VWS V14.01,2013-02-18 04:54:00,
2013-02-17 23:59:00,23.0,13.4,29.93,SE,142,0.0,0.0,66,0.00,,CLR,0.00,0.00,VWS V14.01,2013-02-18 04:59:00,